Location: Kumla
(59.1265°N, 15.1401°E)
Time: 19:13:11
(UTC+01:00)

Vanguard 1 Rocket - Pass Details

Date: 09 December 2023
Orbit: 654 x 4218 km, 34.3° (Epoch: 21 February)

Event Time Altitude Azimuth Distance (km) Brightness Sun altitude
Rises 08:20:35 0° 260° (W) 7,386 11.7 -2.7°
Reaches altitude 10° 08:28:38 10° 245° (WSW) 5,602 11.2 -1.9°
Maximum altitude 08:36:38 16° 214° (SSW) 4,176 11.0 -1.2°
Drops below altitude 10° 08:42:33 10° 180° (S) 3,934 11.5 -0.7°
Sets 08:46:37 0° 159° (SSE) 4,383 12.5 -0.3°
